FLOCK 4H 27

导读

FLOCK 4H 27是一颗由美国发射的卫星,于2025年11月28日发射升空,隶属于FLOCK 4H卫星星座系列,搭乘TRANSPORTER-15X任务进入太空。作为FLOCK星座的组成部分,它大概率属于Planet Labs公司的对地观测小卫星星座,主要承担高分辨率地球遥感成像任务,可用于环境监测、资源勘查、灾害响应等领域,进一步补充了全球对地观测卫星网络的观测能力。

Basic Information
目录编号:
66730
目录名称:
FLOCK 4H 27
国际标识:
2025-276BS
轨道中心:
EARTH
卫星名称:
FLOCK 4H 27
卫星全名:
FLOCK 4H 27
卫星状态:
在轨 (已飞行281 天)
发射日期:
2025-11-28 UTC
国别 :
美国 (US)
星等 :
--
Orbit Information
数据来源 国际轨道数据
星历时间: 2026-09-05T19:00:29+0800
7小时前
查看轨道信息
半长轴: 6879.974km
偏心率: 0.0002127
轨道倾角: 97.411°
近地点辐角 83.631°
升交点赤经 320.825°
平近点角 276.517°
近地点: 500.373km
远地点: 503.301km
周期: 94.654分钟
每日圈数: 15.213273
Detailed Information
使用方式:
暂无
2D Orbit Map
3D Orbit Map
Orbit Altitude Analysis Chart
Orbit Inclination Analysis Chart
Orbit Comprehensive Analysis Chart
View Comprehensive Chart
Conjunction Data List
Event ID Objects TCA Miss Dist (km) Collision Risk Probability Collision Risk Index (CRI) Action
CDM_260907-190406-323306-673022
2026-09-07T
19:04:46+0000
2.477 km
极远距离
1.806177E-6 低风险 0.4
CDM_260906-085604-318106-673021
2026-09-06T
08:56:23+0000
2.740 km
极远距离
1.522946E-6 低风险 0.39
CDM_260907-203906-323306-673022
2026-09-07T
20:39:27+0000
2.839 km
极远距离
1.453202E-6 低风险 0.38